Weather History for KARM - November, 2012

Change the Weather History Date:

Monday, November 12, 2012

  Actual Average (KPSX) Record (KPSX)
Temperature  
Mean Temperature 56 °F -  
Max Temperature 66 °F 74 °F 85 °F (1945)
Min Temperature 46 °F 52 °F 33 °F (1968)
Degree Days  
Heating Degree Days 9    
Growing Degree Days 6 (Base 50)    
Moisture  
Dew Point 41 °F    
Average Humidity 57    
Maximum Humidity 82    
Minimum Humidity 28    
Precipitation  
Precipitation 0.01 in - - ()
Sea Level Pressure  
Sea Level Pressure 30.33 in    
Wind  
Wind Speed 11 mph (North)    
Max Wind Speed 20 mph    
Max Gust Speed 25 mph    
Visibility 10 miles    
Events      
Averages and records for this station are not official NWS values.
T = Trace of Precipitation, MM = Missing Value Source: NWS Daily Summary

Daily Weather History Graph

Daily Weather History Graph

Search for Another Location

Airport or City:

Trip Planner

Search our weather history database for the weather conditions in past years. The results will help you decide how hot, cold, wet, or windy it might be!

Date:

Astronomy

Nov. 12, 2012 Rise Set
Actual Time 6:46 AM CST 5:30 PM CST
Civil Twilight 6:21 AM CST 5:55 PM CST
Nautical Twilight 5:52 AM CST 6:24 PM CST
Astronomical Twilight 5:24 AM CST 6:52 PM CST
Moon 5:17 AM CST (11/12) 4:34 PM CST (11/12)
Length of Visible Light 11h 34m
Length of Day
10h 44m
Waning Crescent, 2% of the Moon is Illuminated
Nov 12
Waning Crescent
Nov 13
New
Nov 20
First Quarter
Nov 28
Full
Dec 6
Last Quarter

Hourly Weather History & Observations

Time (CST) Temp. Windchill Dew Point Humidity Pressure Visibility Wind Dir Wind Speed Gust Speed Precip Events Conditions
12:15 AM 59.0 °F - 51.8 °F 77% 30.15 in 10.0 mi North 8.1 mph - N/A   Overcast
12:35 AM 59.0 °F - 51.8 °F 77% 30.16 in 10.0 mi North 5.8 mph - N/A   Overcast
12:55 AM 59.0 °F - 51.8 °F 77% 30.16 in 10.0 mi NNE 6.9 mph - N/A   Overcast
1:15 AM 59.0 °F - 51.8 °F 77% 30.16 in 10.0 mi North 10.4 mph - N/A   Overcast
1:55 AM 59.0 °F - 51.8 °F 77% 30.18 in 10.0 mi North 8.1 mph - N/A   Overcast
2:15 AM 59.0 °F - 51.8 °F 77% 30.17 in 10.0 mi NNE 9.2 mph 16.1 mph N/A   Mostly Cloudy
2:55 AM 59.0 °F - 51.8 °F 77% 30.18 in 10.0 mi North 10.4 mph - N/A   Mostly Cloudy
3:15 AM 59.0 °F - 50.0 °F 72% 30.19 in 10.0 mi North 8.1 mph - N/A   Mostly Cloudy
3:35 AM 59.0 °F - 51.8 °F 77% 30.19 in 10.0 mi North 10.4 mph 18.4 mph N/A   Overcast
3:55 AM 59.0 °F - 51.8 °F 77% 30.20 in 10.0 mi North 11.5 mph 17.3 mph N/A   Overcast
4:15 AM 59.0 °F - 51.8 °F 77% 30.20 in 10.0 mi North 16.1 mph - N/A   Overcast
4:35 AM 57.2 °F - 51.8 °F 82% 30.21 in 10.0 mi North 12.7 mph 20.7 mph N/A   Overcast
4:55 AM 57.2 °F - 51.8 °F 82% 30.22 in 10.0 mi North 12.7 mph 21.9 mph N/A   Overcast
5:15 AM 57.2 °F - 50.0 °F 77% 30.24 in 10.0 mi North 13.8 mph - N/A   Overcast
5:35 AM 57.2 °F - 50.0 °F 77% 30.24 in 10.0 mi North 13.8 mph 21.9 mph N/A   Overcast
5:55 AM 57.2 °F - 50.0 °F 77% 30.27 in 10.0 mi North 12.7 mph 17.3 mph N/A   Overcast
6:15 AM 57.2 °F - 50.0 °F 77% 30.28 in 10.0 mi North 9.2 mph - N/A   Overcast
6:35 AM 55.4 °F - 50.0 °F 82% 30.29 in 10.0 mi North 10.4 mph 19.6 mph N/A   Overcast
6:55 AM 55.4 °F - 50.0 °F 82% 30.31 in 10.0 mi North 12.7 mph 16.1 mph N/A   Overcast
7:15 AM 55.4 °F - 50.0 °F 82% 30.31 in 10.0 mi North 12.7 mph 19.6 mph N/A   Overcast
7:35 AM 55.4 °F - 50.0 °F 82% 30.33 in 10.0 mi North 12.7 mph 19.6 mph 0.01 in   Overcast
7:55 AM 55.4 °F - 50.0 °F 82% 30.34 in 10.0 mi North 13.8 mph 20.7 mph 0.01 in   Overcast
8:15 AM 55.4 °F - 50.0 °F 82% 30.34 in 10.0 mi North 17.3 mph - N/A   Overcast
8:35 AM 55.4 °F - 50.0 °F 82% 30.36 in 10.0 mi North 19.6 mph 24.2 mph N/A   Mostly Cloudy
8:55 AM 55.4 °F - 48.2 °F 77% 30.37 in 10.0 mi North 19.6 mph 25.3 mph N/A   Overcast
9:15 AM 57.2 °F - 48.2 °F 72% 30.37 in 10.0 mi North 19.6 mph 25.3 mph N/A   Overcast
9:35 AM 57.2 °F - 46.4 °F 67% 30.38 in 10.0 mi North 17.3 mph 24.2 mph N/A   Overcast
9:55 AM 59.0 °F - 44.6 °F 59% 30.40 in 10.0 mi North 18.4 mph 24.2 mph N/A   Overcast
10:15 AM 57.2 °F - 42.8 °F 59% 30.39 in 10.0 mi North 17.3 mph 23.0 mph N/A   Overcast
10:35 AM 59.0 °F - 42.8 °F 55% 30.38 in 10.0 mi North 13.8 mph - N/A   Mostly Cloudy
10:55 AM 60.8 °F - 41.0 °F 48% 30.38 in 10.0 mi North 16.1 mph 20.7 mph N/A   Scattered Clouds
11:15 AM 60.8 °F - 37.4 °F 42% 30.38 in 10.0 mi North 13.8 mph 21.9 mph N/A   Overcast
11:35 AM 62.6 °F - 35.6 °F 37% 30.38 in 10.0 mi NNE 11.5 mph 20.7 mph N/A   Mostly Cloudy
11:55 AM 62.6 °F - 33.8 °F 34% 30.38 in 10.0 mi North 16.1 mph 24.2 mph N/A   Overcast
12:15 PM 62.6 °F - 33.8 °F 34% 30.37 in 10.0 mi North 13.8 mph 21.9 mph N/A   Overcast
12:35 PM 62.6 °F - 33.8 °F 34% 30.37 in 10.0 mi NNE 13.8 mph 23.0 mph N/A   Mostly Cloudy
12:55 PM 64.4 °F - 33.8 °F 32% 30.35 in 10.0 mi North 16.1 mph 21.9 mph N/A   Scattered Clouds
1:15 PM 64.4 °F - 32.0 °F 30% 30.34 in 10.0 mi North 17.3 mph 24.2 mph N/A   Clear
1:35 PM 64.4 °F - 32.0 °F 30% 30.34 in 10.0 mi North 16.1 mph 23.0 mph N/A   Scattered Clouds
1:55 PM 64.4 °F - 32.0 °F 30% 30.34 in 10.0 mi NNE 11.5 mph 21.9 mph N/A   Mostly Cloudy
2:15 PM 66.2 °F - 32.0 °F 28% 30.34 in 10.0 mi North 16.1 mph 20.7 mph N/A   Mostly Cloudy
2:35 PM 64.4 °F - 32.0 °F 30% 30.34 in 10.0 mi North 13.8 mph 24.2 mph N/A   Scattered Clouds
2:55 PM 64.4 °F - 32.0 °F 30% 30.34 in 10.0 mi North 15.0 mph 23.0 mph N/A   Scattered Clouds
3:15 PM 64.4 °F - 32.0 °F 30% 30.34 in 10.0 mi North 15.0 mph - N/A   Clear
3:35 PM 64.4 °F - 32.0 °F 30% 30.34 in 10.0 mi North 12.7 mph 18.4 mph N/A   Clear
3:55 PM 64.4 °F - 32.0 °F 30% 30.35 in 10.0 mi North 15.0 mph - N/A   Clear
4:35 PM 62.6 °F - 32.0 °F 32% 30.36 in 10.0 mi North 13.8 mph 18.4 mph N/A   Scattered Clouds
4:55 PM 62.6 °F - 32.0 °F 32% 30.37 in 10.0 mi North 11.5 mph 17.3 mph N/A   Clear
5:15 PM 60.8 °F - 32.0 °F 34% 30.37 in 10.0 mi North 9.2 mph - N/A   Clear
5:35 PM 59.0 °F - 32.0 °F 36% 30.37 in 10.0 mi North 8.1 mph - N/A   Clear
5:55 PM 55.4 °F - 33.8 °F 44% 30.37 in 10.0 mi North 6.9 mph - N/A   Clear
6:15 PM 53.6 °F - 33.8 °F 47% 30.38 in 10.0 mi NNW 6.9 mph - N/A   Clear
6:35 PM 53.6 °F - 33.8 °F 47% 30.38 in 10.0 mi NNW 8.1 mph - N/A   Clear
6:55 PM 53.6 °F - 33.8 °F 47% 30.39 in 10.0 mi NNW 9.2 mph - N/A   Clear
7:15 PM 53.6 °F - 33.8 °F 47% 30.40 in 10.0 mi North 8.1 mph - N/A   Clear
7:35 PM 51.8 °F - 33.8 °F 50% 30.41 in 10.0 mi North 6.9 mph - N/A   Clear
7:55 PM 51.8 °F - 33.8 °F 50% 30.42 in 10.0 mi North 8.1 mph - N/A   Clear
8:15 PM 51.8 °F - 33.8 °F 50% 30.42 in 10.0 mi North 9.2 mph - N/A   Clear
8:35 PM 51.8 °F - 33.8 °F 50% 30.42 in 10.0 mi North 8.1 mph - N/A   Clear
8:55 PM 50.0 °F - 33.8 °F 54% 30.42 in 10.0 mi North 6.9 mph - N/A   Clear
9:15 PM 50.0 °F - 33.8 °F 54% 30.43 in 10.0 mi North 8.1 mph - N/A   Clear
9:35 PM 50.0 °F - 32.0 °F 50% 30.44 in 10.0 mi North 8.1 mph - N/A   Clear
9:55 PM 50.0 °F - 33.8 °F 54% 30.44 in 10.0 mi North 6.9 mph - N/A   Clear
10:15 PM 48.2 °F - 33.8 °F 58% 30.44 in 10.0 mi North 6.9 mph - N/A   Clear
10:35 PM 46.4 °F 42.9 °F 33.8 °F 62% 30.44 in 10.0 mi North 6.9 mph - N/A   Clear
10:55 PM 46.4 °F 43.5 °F 33.8 °F 62% 30.44 in 10.0 mi North 5.8 mph - N/A   Clear
11:15 PM 46.4 °F 42.9 °F 33.8 °F 62% 30.44 in 10.0 mi North 6.9 mph - N/A   Clear
11:35 PM 46.4 °F 43.5 °F 33.8 °F 62% 30.44 in 10.0 mi North 5.8 mph - N/A   Clear
11:55 PM 46.4 °F 42.9 °F 33.8 °F 62% 30.45 in 10.0 mi North 6.9 mph - N/A   Clear